Regional Weather Roundup
Issued by NWS

Home | Current Version | Previous Version | Text Only | Print | Product List | Glossary Off
Versions: 1 2 3 4 5 6 7 8 9 10 11 12 13 14 15 16 17 18 19 20 21 22 23 24 25 26 27

000
ASUS45 KBOI 041910
RWRID

IDAHO REGIONAL WEATHER ROUNDUP
NATIONAL WEATHER SERVICE BOISE ID
1200 PM MST SUN DEC 04 2016

NOTE: "FAIR" INDICATES FEW OR NO CLOUDS BELOW 12000 FEET
WITH NO SIGNIFICANT WEATHER AND/OR OBSTRUCTIONS TO VISIBILITY

IDZ012-014-042000-
SOUTHWEST IDAHO


CITY           SKY/WX    TMP DP  RH WIND       PRES   REMARKS
BOISE          CLOUDY    43  32  65 SE13      29.89F
CALDWELL       CLOUDY    44  28  53 E10       29.88F
MOUNTAIN HOME  CLOUDY    41  29  62 E12       29.91F
$$

IDZ016-017-042000-
SOUTHCENTRAL IDAHO


CITY           SKY/WX    TMP DP  RH WIND       PRES   REMARKS
BURLEY         CLOUDY    43  20  39 S28G37    29.92F
JEROME         LGT RAIN  43  25  49 MISG      29.93F
TWIN FALLS     CLOUDY    44  21  40 S21G29    29.91F
$$

IDZ019>023-042000-
SOUTHEAST IDAHO


CITY           SKY/WX    TMP DP  RH WIND       PRES   REMARKS
IDAHO FALLS    CLOUDY    36  24  62 S18       29.89F WCI  26
POCATELLO      CLOUDY    38  22  52 S30G38    29.91F WCI  26
REXBURG        CLOUDY    33  25  72 S12       29.87F WCI  24
$$

IDZ006-010-011-018-031-032-042000-
CENTRAL IDAHO MOUNTAINS


CITY           SKY/WX    TMP DP  RH WIND       PRES   REMARKS
MCCALL         LGT SNOW  32  29  88 S10       29.78F VSB 3/4 WCI  24
HAILEY         LGT SNOW  30  30 100 SE9       29.90F VSB 1   WCI  22
STANLEY          N/A     34  28  79 S12G20    29.80F WCI  25
SALMON         CLOUDY    27  25  93 CALM      29.78F
CHALLIS        CLOUDY    32  28  85 CALM      29.76F
$$

IDZ002-004-006-007-026-042000-
NORTHERN IDAHO


CITY           SKY/WX    TMP DP  RH WIND       PRES   REMARKS
LEWISTON       LGT RAIN  41  35  79 W22G29    29.84S
LOWELL           N/A     34  32  92 CALM      29.84F
COEUR D`ALENE  LGT RAIN  37  34  89 W13       29.73F WCI  29
MULLAN PASS    SNOW      25  23  92 VRB7      29.57F VSB 1/4 WCI  17
$$




USA.gov is the U.S. government's official web portal to all federal, state and local government web resources and services.